Temp
7 7 7 7 7 7 8 8 8 8 8 8 9 9 9 9 9 9 9 9 9 10 10 10 10 9 9 9 9 9 9 9 9 9 9 9 8 8 8 8 8 8 8 8 8
7 7 7 7 7 7 7 8 8 8 8 8 8 9 9 9 9 9 9 9 10 10 10 9 9 9 9 9 9 9 9 9 9 9 8 8 8 8 8 8 8 8 8 8 8
6 7 7 7 7 7 7 7 8 8 8 8 8 8 9 9 9 9 9 9 10 10 9 9 9 9 9 9 9 9 9 9 9 9 8 8 8 7 8 7 8 8 8 8 8
6 6 6 7 7 7 7 7 7 8 8 8 8 8 8 8 8 9 9 9 9 9 9 9 8 8 8 8 9 8 9 8 8 8 8 8 8 8 7 8 8 8 8 8 8
6 6 6 6 6 7 7 7 7 7 8 8 8 8 8 8 8 8 8 8 8 8 8 8 8 8 8 8 8 8 8 8 8 8 8 8 8 8 8 8 8 7 7 7 7
6 6 6 6 6 6 7 7 7 7 7 7 8 8 8 8 8 8 8 8 8 8 8 8 8 7 7 7 8 8 8 8 8 7 8 8 8 7 8 8 8 7 7 7 7
5 6 6 6 6 6 6 7 7 7 7 7 7 7 8 8 8 8 8 8 7 7 8 7 7 7 7 7 7 7 7 8 8 8 8 8 7 8 8 7 7 7 7 7 7
5 5 5 6 6 6 6 6 6 6 7 7 7 7 8 8 8 7 7 7 7 7 7 7 7 7 7 7 7 7 7 7 8 8 8 8 7 7 7 7 7 7 7 6 6
5 5 5 5 5 6 6 6 6 6 6 6 6 7 7 8 8 7 7 7 7 7 7 7 6 6 6 6 6 6 6 7 7 7 7 7 6 7 7 7 6 6 6 6 6
4 4 5 5 5 5 5 5 5 6 6 6 6 6 7 8 7 7 7 7 7 7 6 6 6 6 6 6 6 6 6 7 6 7 6 6 6 6 6 6 6 6 6 6 6
4 4 4 4 5 5 5 5 5 5 6 6 6 6 6 6 7 7 7 6 7 7 6 6 6 7 8 7 6 6 5 6 6 6 5 5 6 5 5 5 5 5 5 5 5
3 4 4 4 4 4 4 5 5 5 5 6 6 5 5 6 6 6 6 6 6 7 6 6 6 7 6 6 5 5 5 5 6 5 4 4 4 5 5 5 5 5 5 5 6
2 3 3 3 3 4 4 4 4 4 4 5 5 5 5 5 5 5 5 5 5 6 6 6 6 6 6 6 5 5 5 5 5 5 4 3 3 5 5 6 6 5 6 6 6
1 1 2 2 3 3 4 3 3 3 2 3 6 6 5 5 5 5 5 5 4 5 5 4 4 5 5 4 5 4 5 4 4 3 3 2 5 5 6 6 6 6 6 6 6
1 1 1 2 2 3 3 2 2 1 1 5 5 5 6 6 5 6 5 5 5 5 4 4 5 5 4 5 4 3 3 3 3 2 1 1 2 4 5 6 7 7 6 6 5
1 0 0 0 2 2 1 1 1 1 1 4 4 5 4 5 5 5 5 5 4 3 3 3 3 3 3 3 3 3 2 2 1 1 1 2 2 5 6 7 6 6 6 5 5
0 -0 -0 0 1 1 0 0 -1 0 2 3 3 4 5 5 5 4 4 4 3 2 2 2 3 2 2 2 2 2 1 2 1 1 2 2 -0 4 5 6 7 6 6 6 5
0 -0 -0 -0 0 -1 -1 -2 -1 3 2 2 3 4 4 5 4 4 3 2 3 3 3 2 2 5 4 3 2 1 1 3 2 2 3 0 0 4 5 5 6 6 6 6 5
-0 0 -0 -0 -0 -2 -2 -1 -0 1 2 2 2 2 3 4 4 4 3 3 4 5 3 3 2 4 4 2 1 -0 -0 1 1 -0 -0 2 2 4 5 5 5 5 5 5 5
-1 -0 -0 -1 -1 -1 -2 -2 1 1 1 2 2 3 3 3 3 3 4 4 4 5 5 3 2 3 2 1 -0 0 1 -0 0 1 2 2 0 4 4 4 4 4 4 4 4
-1 -1 -1 -0 -0 -1 -2 -1 -1 -0 -0 1 2 2 2 3 3 4 4 4 4 5 4 3 1 1 1 0 2 0 -0 1 1 2 2 3 3 4 4 4 4 3 3 3 3
-1 -2 -1 -1 -0 -1 -2 -0 -2 -1 -1 0 0 1 1 2 2 3 3 4 4 4 4 3 -1 0 2 2 2 0 0 1 2 -1 1 2 3 3 3 3 3 3 2 2 2
-2 -2 -2 -1 -1 -1 -1 -2 -2 -2 -1 -1 -0 -0 1 1 1 2 2 3 3 3 3 2 -2 -1 -0 -1 -0 -1 1 1 2 2 2 1 3 3 2 2 2 2 1 0 0
-4 -3 -2 -2 -1 -1 -1 -2 -2 -2 -2 -1 -1 -1 -1 -1 -0 1 1 1 1 2 2 1 -1 -0 2 3 2 0 1 1 1 1 2 2 2 2 2 1 1 1 0 -1 -1
-4 -4 -3 -2 -1 -1 -1 -1 -1 -2 -2 -1 -1 -1 -1 -1 -1 -0 -1 -0 -0 1 1 -1 -1 -1 1 1 2 2 3 2 1 3 1 2 1 2 2 1 1 -0 -1 -1 -2
-3 -4 -4 -3 -2 -2 -2 -1 -1 -1 -1 -1 -2 -1 -1 -1 -1 -1 -0 -1 -0 -1 -1 -2 -2 -2 -1 -0 1 1 1 1 2 3 1 1 1 1 1 -0 0 -0 -1 -2 -2
-5 -4 -4 -4 -3 -3 -2 -2 -2 -2 -2 -2 -1 -1 -1 -1 -1 -1 -1 -1 -1 -1 -1 -1 -2 -3 -2 -1 -2 -4 1 -0 1 1 1 -0 2 0 1 0 -1 -1 -2 -3 -3
Height
3174 3175 3176 3177 3178 3179 3179 3180 3181 3182 3183 3184 3184 3185 3186 3186 3187 3187 3188 3188 3188 3188 3188 3189 3189 3189 3189 3190 3190 3190 3191 3190 3190 3190 3190 3191 3191 3192 3193 3193 3192 3192 3192 3192 3191
3172 3174 3175 3176 3176 3177 3178 3179 3180 3181 3182 3182 3183 3184 3184 3184 3184 3185 3186 3186 3186 3186 3186 3187 3187 3187 3188 3188 3188 3189 3189 3188 3188 3188 3188 3190 3190 3190 3191 3190 3190 3190 3190 3189 3189
3169 3171 3172 3173 3174 3176 3177 3178 3178 3179 3180 3180 3181 3181 3182 3182 3183 3183 3183 3183 3183 3184 3184 3184 3185 3186 3186 3186 3186 3186 3186 3186 3185 3186 3186 3187 3188 3188 3188 3187 3187 3187 3186 3186 3186
3166 3167 3169 3170 3172 3173 3174 3175 3176 3176 3177 3178 3179 3179 3180 3181 3184 3180 3181 3181 3182 3182 3183 3183 3183 3184 3184 3184 3184 3184 3183 3183 3183 3184 3184 3185 3185 3185 3184 3185 3184 3184 3184 3184 3184
3162 3164 3165 3166 3168 3169 3171 3172 3173 3174 3174 3174 3175 3176 3177 3179 3179 3178 3179 3179 3180 3180 3180 3181 3181 3181 3181 3181 3182 3182 3182 3181 3181 3182 3182 3182 3182 3181 3180 3181 3181 3180 3181 3181 3182
3157 3159 3160 3162 3163 3165 3167 3168 3169 3170 3171 3171 3172 3173 3174 3175 3175 3175 3175 3176 3176 3177 3177 3177 3178 3178 3178 3179 3180 3179 3179 3179 3179 3178 3179 3179 3178 3177 3177 3177 3177 3177 3177 3177 3178
3150 3153 3156 3157 3159 3161 3162 3164 3165 3166 3167 3167 3168 3169 3170 3172 3170 3171 3171 3172 3172 3173 3174 3174 3174 3176 3176 3176 3176 3176 3176 3176 3175 3175 3174 3175 3174 3172 3173 3173 3174 3174 3174 3174 3173
3144 3146 3149 3151 3154 3156 3158 3159 3160 3162 3162 3163 3164 3164 3163 3165 3166 3167 3167 3168 3168 3169 3170 3170 3171 3171 3172 3173 3173 3173 3173 3172 3171 3171 3171 3172 3170 3169 3169 3170 3170 3170 3170 3170 3169
3137 3139 3142 3145 3147 3150 3152 3153 3155 3156 3157 3158 3159 3159 3158 3160 3160 3162 3162 3163 3164 3165 3165 3166 3166 3167 3169 3169 3170 3169 3169 3168 3169 3168 3168 3169 3166 3166 3166 3166 3166 3165 3165 3165 3165
3129 3132 3135 3138 3140 3143 3146 3148 3149 3150 3151 3152 3152 3156 3154 3155 3155 3155 3157 3158 3159 3160 3161 3162 3161 3162 3163 3164 3166 3164 3164 3164 3164 3166 3165 3164 3163 3162 3162 3161 3161 3160 3160 3160 3159
3121 3124 3127 3130 3133 3136 3140 3142 3145 3145 3144 3147 3146 3146 3148 3150 3150 3151 3152 3154 3155 3155 3155 3156 3156 3155 3159 3160 3161 3161 3161 3160 3160 3161 3161 3160 3159 3156 3156 3155 3155 3154 3154 3154 3154
3113 3116 3118 3122 3125 3128 3131 3133 3137 3138 3136 3137 3138 3139 3140 3143 3145 3146 3148 3149 3149 3149 3150 3152 3148 3154 3154 3154 3155 3156 3156 3156 3156 3156 3155 3153 3150 3152 3148 3148 3148 3147 3147 3148 3148
3104 3107 3109 3112 3115 3119 3124 3129 3130 3131 3128 3126 3128 3129 3133 3136 3137 3138 3142 3142 3142 3143 3144 3144 3145 3147 3148 3148 3150 3150 3150 3152 3154 3151 3149 3147 3140 3141 3139 3139 3139 3140 3141 3142 3143
3093 3097 3100 3102 3106 3112 3116 3125 3125 3127 3122 3110 3115 3115 3120 3126 3124 3131 3132 3135 3135 3136 3139 3138 3137 3140 3141 3142 3145 3144 3147 3148 3147 3148 3146 3143 3133 3132 3131 3129 3130 3132 3134 3136 3137
3081 3084 3087 3091 3095 3102 3117 3117 3119 3124 3120 3103 3098 3098 3106 3114 3114 3117 3123 3125 3125 3129 3132 3129 3130 3132 3133 3135 3139 3139 3140 3142 3141 3141 3139 3138 3139 3122 3124 3124 3125 3127 3129 3130 3131
3067 3071 3074 3078 3081 3097 3104 3108 3113 3122 3096 3088 3088 3090 3097 3101 3104 3108 3113 3116 3118 3121 3122 3123 3124 3126 3126 3129 3132 3132 3135 3136 3136 3137 3130 3128 3131 3115 3116 3118 3120 3122 3123 3125 3126
3054 3058 3061 3067 3071 3089 3094 3099 3105 3094 3082 3078 3080 3085 3089 3092 3095 3100 3103 3105 3108 3112 3113 3116 3114 3117 3119 3123 3124 3126 3130 3135 3135 3132 3119 3116 3120 3107 3111 3112 3114 3116 3119 3120 3121
3046 3049 3050 3055 3067 3074 3080 3085 3080 3055 3070 3070 3075 3079 3081 3086 3088 3091 3095 3098 3100 3103 3105 3107 3108 3107 3108 3109 3113 3115 3121 3122 3119 3116 3110 3112 3105 3099 3102 3106 3109 3111 3112 3113 3114
3035 3036 3036 3041 3052 3056 3062 3061 3048 3048 3060 3066 3072 3073 3074 3078 3083 3086 3087 3088 3092 3095 3100 3099 3098 3099 3100 3102 3107 3107 3110 3116 3114 3111 3110 3101 3096 3096 3095 3099 3103 3105 3107 3109 3110
3023 3023 3025 3032 3039 3041 3040 3037 3032 3043 3052 3057 3059 3063 3064 3070 3074 3076 3077 3078 3085 3089 3092 3093 3094 3094 3094 3097 3100 3100 3103 3110 3111 3107 3101 3092 3090 3087 3088 3093 3096 3099 3102 3105 3106
3010 3008 3013 3023 3028 3023 3018 3015 3027 3036 3043 3050 3051 3055 3054 3058 3064 3064 3068 3072 3079 3083 3084 3088 3091 3090 3087 3084 3085 3091 3092 3095 3096 3095 3090 3086 3079 3078 3082 3086 3090 3095 3097 3100 3101
2997 2998 3003 3009 3009 3004 3007 3003 3020 3025 3034 3040 3043 3045 3047 3052 3054 3056 3056 3064 3071 3074 3074 3078 3079 3080 3078 3077 3079 3080 3080 3083 3082 3083 3083 3082 3071 3076 3078 3082 3085 3088 3092 3094 3096
2986 2989 2995 2992 2991 2991 2998 3005 3011 3015 3019 3025 3031 3034 3039 3041 3046 3044 3047 3057 3061 3063 3064 3068 3069 3075 3072 3072 3068 3066 3070 3072 3077 3078 3068 3076 3061 3070 3073 3075 3078 3081 3083 3085 3088
2978 2976 2981 2977 2980 2986 2990 2993 2998 3004 3009 3016 3018 3027 3029 3030 3032 3032 3039 3047 3051 3053 3056 3057 3056 3053 3049 3053 3054 3055 3055 3060 3066 3065 3059 3048 3058 3063 3065 3067 3071 3074 3075 3077 3079
2963 2962 2966 2967 2973 2974 2979 2984 2988 2993 2998 3004 3006 3007 3013 3018 3022 3019 3031 3036 3038 3040 3042 3043 3040 3042 3040 3046 3048 3046 3045 3049 3047 3041 3051 3041 3047 3051 3057 3059 3063 3064 3065 3067 3069
2953 2952 2959 2960 2964 2966 2969 2972 2977 2985 2988 2989 2992 2999 3003 3003 3006 3011 3017 3019 3024 3027 3029 3030 3028 3033 3029 3033 3036 3035 3038 3032 3034 3036 3037 3040 3039 3044 3050 3051 3052 3055 3056 3058 3060
2943 2947 2952 2950 2954 2961 2961 2966 2970 2976 2978 2981 2985 2990 2990 2994 2999 3001 3003 3008 3010 3012 3015 3017 3018 3020 3013 3023 3025 3024 2999 3021 3020 3023 3026 3025 3026 3035 3039 3041 3045 3046 3046 3049 3051
Wind_Speed
13 13 12 12 11 11 11 10 9 8 7 7 7 6 6 6 6 6 7 7 7 7 7 7 6 6 6 6 5 6 6 8 9 11 12 12 11 10 9 9 11 10 9 8 9
15 14 13 12 11 11 10 10 10 9 9 9 8 8 7 7 7 8 8 9 9 8 9 8 7 7 6 6 5 5 5 6 8 10 10 12 12 11 11 11 13 11 11 11 10
17 16 15 14 12 12 12 12 11 11 10 10 9 8 8 8 9 10 10 10 9 9 8 7 6 6 7 8 9 9 9 9 9 10 10 11 12 13 13 13 13 14 13 11 8
20 19 18 17 15 15 14 14 13 13 12 12 11 10 10 10 6 8 7 7 7 7 7 9 10 10 9 9 9 9 9 9 9 10 10 11 12 13 15 15 15 12 12 11 10
24 22 21 20 19 18 17 17 16 15 15 14 13 13 12 12 12 13 12 12 12 12 13 12 12 11 11 8 8 8 8 8 9 10 12 13 14 17 18 16 16 13 11 12 12
27 26 25 24 22 21 20 20 19 18 18 17 16 16 16 15 15 16 16 15 15 15 14 13 13 11 12 11 11 10 10 12 12 14 15 16 18 19 18 17 14 13 14 15 15
30 29 28 27 26 25 23 23 22 21 21 20 20 20 20 18 18 17 16 15 15 15 15 14 14 13 13 12 13 13 13 13 13 14 16 16 20 20 17 15 15 16 18 18 20
33 32 31 30 29 28 26 25 25 24 23 23 23 23 24 22 21 20 19 19 18 18 18 17 16 16 16 16 16 15 16 16 13 11 12 14 11 13 15 17 18 19 20 22 22
35 34 34 33 32 31 29 28 27 27 26 26 26 26 27 26 24 22 21 21 21 20 20 20 19 19 19 18 18 17 12 14 13 13 13 15 12 13 16 18 19 22 22 24 25
38 37 37 37 35 33 32 31 30 30 30 29 29 26 26 19 13 12 18 23 23 23 23 23 23 23 23 21 15 11 16 18 18 14 16 19 21 21 19 21 22 24 27 25 23
39 38 38 38 37 36 34 34 33 33 33 31 29 25 25 22 19 19 19 21 20 21 23 23 25 26 21 18 20 19 19 20 19 16 20 23 23 25 25 27 28 28 26 23 17
39 39 38 40 40 38 37 36 34 35 35 35 35 35 34 31 27 24 22 22 24 25 23 25 29 21 20 22 22 22 23 23 23 23 25 26 29 26 31 32 30 28 25 21 19
40 41 41 42 43 42 38 35 33 32 36 42 39 39 36 34 33 33 30 29 28 28 28 30 27 20 21 25 26 27 27 25 25 26 27 28 34 35 37 36 31 27 22 21 20
47 44 46 45 48 43 41 31 31 29 29 41 43 45 44 38 43 36 35 35 35 34 31 28 33 31 30 28 25 28 28 26 27 25 19 13 13 17 17 22 24 22 22 22 20
49 50 54 49 50 46 33 32 30 24 8 17 30 35 36 40 42 40 41 40 40 38 34 28 27 27 30 32 28 29 27 26 28 25 21 19 14 14 26 23 22 22 23 23 22
47 53 53 56 53 43 33 32 28 16 16 14 18 24 28 33 39 41 38 42 42 40 38 37 34 30 30 26 23 27 23 20 19 17 13 26 23 11 19 19 22 23 24 24 23
43 51 52 58 55 38 34 34 27 29 20 25 24 22 24 29 33 36 38 40 39 28 35 40 44 42 36 27 26 27 18 6 6 7 8 13 19 25 14 16 16 17 17 18 21
44 46 49 56 51 39 40 42 24 57 52 25 18 30 29 29 33 34 36 37 39 37 19 18 14 29 32 36 31 32 30 13 7 6 3 14 12 15 23 25 20 19 18 20 24
46 41 53 54 52 47 49 51 52 50 36 43 24 26 35 33 29 33 36 40 38 36 33 17 18 24 23 22 30 26 31 31 5 3 3 9 12 13 19 26 25 25 23 22 24
39 43 48 53 50 51 54 61 68 56 35 32 46 30 33 36 35 32 32 32 41 35 34 23 17 17 22 24 30 27 26 18 18 5 6 6 9 17 21 26 24 24 20 20 22
36 33 54 46 47 58 64 71 65 49 41 39 42 36 38 39 40 42 39 37 24 23 31 35 22 16 22 32 36 36 30 23 17 19 4 3 8 10 18 18 21 20 18 17 21
50 41 39 52 55 65 69 73 56 55 45 40 39 39 41 36 36 42 47 48 31 29 30 34 20 27 33 28 38 40 32 42 20 11 20 16 16 13 15 21 24 23 17 17 21
42 45 22 42 50 53 62 70 66 54 56 52 48 44 43 38 36 39 43 40 40 37 33 34 22 15 16 28 33 44 46 43 42 25 33 13 12 20 22 24 25 21 18 17 19
41 35 29 43 43 54 59 53 65 61 44 56 57 48 41 43 42 35 36 34 42 45 40 38 34 34 32 20 25 46 50 53 50 37 37 48 32 24 27 29 27 21 21 20 22
41 37 41 35 53 46 52 54 58 52 60 37 48 57 58 49 49 58 49 37 37 35 41 44 45 46 51 42 35 31 42 53 59 64 35 51 43 42 38 33 31 29 29 28 23
43 38 39 36 42 42 38 39 46 52 57 50 63 54 49 52 58 46 52 50 49 39 45 49 45 44 50 54 53 46 43 46 48 59 61 44 43 33 28 31 34 33 33 28 26
41 44 30 39 44 43 40 44 40 32 35 50 55 49 45 46 52 52 49 49 51 48 51 52 54 37 42 52 43 28 74 53 51 51 55 50 59 42 35 36 31 34 31 28 30
Wind_Direction
202 201 202 201 203 199 197 200 200 201 207 211 216 222 227 228 236 237 236 235 235 234 240 244 250 254 252 251 237 226 219 213 204 201 210 205 213 220 226 241 260 267 268 269 266
216 217 218 220 219 220 218 217 216 217 218 221 224 227 237 246 247 248 246 246 245 247 248 247 246 242 238 242 239 225 215 222 206 213 212 209 216 225 242 255 266 271 281 279 272
227 228 230 232 236 237 235 233 229 231 233 235 239 245 248 252 255 253 249 247 246 245 239 232 221 222 231 242 252 255 245 232 219 219 219 216 225 239 247 254 258 276 280 273 267
234 234 236 239 241 242 243 242 240 239 242 245 248 249 251 254 253 245 232 223 219 211 223 244 252 251 249 250 249 248 239 230 223 223 226 232 238 249 255 261 270 263 250 250 254
240 240 242 243 244 245 245 246 246 246 247 250 253 256 255 253 247 250 249 248 247 248 254 254 253 258 258 250 247 246 233 226 231 239 243 246 252 259 260 261 268 255 235 239 251
242 244 246 247 247 248 248 247 247 248 252 255 257 258 258 257 256 253 252 251 252 254 254 254 255 255 255 250 251 252 243 247 250 251 254 254 253 254 257 267 245 245 258 265 273
241 245 246 249 250 250 250 250 250 251 253 257 259 260 260 257 257 253 251 249 249 248 250 250 250 251 257 261 257 258 255 255 253 250 253 253 256 253 247 239 242 254 261 266 274
242 244 247 248 249 251 251 250 251 252 256 259 261 263 264 261 258 254 249 249 249 249 249 250 250 251 254 260 260 262 269 270 265 246 242 230 239 243 241 246 253 257 262 269 274
243 244 246 247 249 251 250 250 250 252 254 258 261 264 266 264 260 256 250 247 246 248 249 250 251 251 253 255 262 260 251 259 259 252 230 223 251 255 256 252 255 262 266 276 283
244 244 246 247 248 249 250 250 250 252 253 256 258 262 257 257 252 244 244 246 245 246 248 248 248 249 250 246 241 249 254 258 255 254 239 242 254 262 256 253 256 261 271 274 277
244 244 246 247 246 246 246 247 250 255 255 256 256 256 260 253 247 251 249 249 243 240 242 246 243 246 262 268 259 261 259 260 262 251 257 261 261 264 258 258 264 269 269 272 252
248 246 245 247 246 243 243 244 248 255 261 257 255 254 254 250 248 246 250 249 245 242 240 241 247 260 259 254 253 251 252 255 261 267 269 271 268 263 263 264 265 264 266 251 252
251 250 246 246 245 243 241 244 247 254 262 259 255 255 253 251 251 248 247 249 246 243 245 252 256 258 252 252 250 252 249 253 266 277 275 277 275 270 265 262 259 255 243 240 255
249 249 247 245 244 240 240 244 249 254 265 263 261 256 248 246 247 241 241 241 244 247 250 256 252 250 253 252 252 252 257 261 265 268 265 268 279 273 266 248 233 227 228 246 248
249 243 244 240 245 242 241 239 242 245 271 256 234 239 238 232 239 239 238 241 244 247 243 248 257 257 251 259 256 253 259 263 266 263 255 252 260 263 248 233 223 225 234 238 244
248 249 244 230 238 236 230 227 225 206 240 226 215 223 222 227 234 235 234 235 239 241 245 246 253 255 258 254 245 248 253 256 254 242 253 240 222 250 237 232 234 236 236 242 246
249 244 240 229 235 232 222 213 196 217 228 233 217 208 217 220 225 226 232 231 226 220 239 248 250 252 252 244 239 236 213 212 228 212 247 208 212 231 207 217 216 228 232 244 245
233 237 245 235 227 224 215 201 208 232 222 225 216 215 216 215 221 226 225 228 230 230 231 229 246 254 253 245 239 229 209 199 216 205 210 203 229 240 221 211 214 218 226 242 247
225 230 232 236 226 223 212 197 216 222 227 218 224 209 212 216 222 222 227 231 229 232 226 231 243 247 245 238 222 211 207 217 254 247 267 217 240 231 204 210 215 216 226 239 245
236 232 236 234 229 223 213 208 225 225 225 224 221 225 225 215 215 215 225 240 238 238 239 244 252 248 235 223 215 218 223 202 215 216 232 219 243 225 216 214 215 221 228 238 243
226 230 238 234 236 216 203 218 223 226 227 223 226 226 228 226 229 231 235 243 233 233 233 237 239 248 223 215 218 210 213 210 206 226 227 256 240 214 206 201 205 212 214 228 243
234 243 237 226 223 213 211 224 223 226 221 221 229 232 234 233 230 238 239 241 245 241 243 238 229 237 240 234 227 225 218 215 205 206 221 243 256 245 207 194 191 197 235 242 246
237 238 228 228 219 212 217 222 223 224 227 222 229 232 233 236 232 239 237 234 239 241 243 235 217 232 248 240 230 224 222 224 222 237 234 209 245 235 209 216 208 234 255 247 241
243 233 216 212 233 228 221 221 223 224 233 239 236 229 233 230 230 240 238 234 238 248 250 236 230 221 230 236 233 223 226 225 224 227 233 237 240 238 229 224 225 247 259 256 248
243 237 228 211 211 221 226 225 224 222 229 223 231 236 235 227 232 239 241 239 239 239 234 233 232 236 250 239 247 246 243 234 225 233 222 247 244 244 241 234 258 271 267 270 248
228 225 234 233 227 219 214 231 232 236 232 229 234 230 227 236 241 239 239 234 241 241 238 229 233 239 238 239 239 246 249 245 245 241 234 239 249 246 245 246 255 261 271 270 261
231 246 237 237 235 233 231 226 224 223 222 230 238 237 233 236 236 242 242 248 248 247 238 232 226 225 233 235 238 243 240 239 241 237 236 229 243 246 254 263 261 269 267 262 258